Tracking 19827 objects as of 21-Aug-2019
HD Live streaming from Space Station
objects crossing your sky now

COSMOS 2251 DEB

Track COSMOS 2251 DEB now!
10-day predictions


NORAD ID: 37530
Int'l Code: 1993-036BNK
Perigee: 773.9 km
Apogee: 812.6 km
Inclination: 74.0 °
Period: 100.6 minutes
Semi major axis: 7164 km
RCS: 0.0042 m2 (small)
Launch date: June 16, 1993
Source: Commonwealth of Independent States (former USSR) (CIS)
Launch site: PLESETSK MISSILE AND SPACE COMPLEX (PKMTR)

Note: This is SATELLITE DEBRIS
aabbcc
Your satellite tracking list
Your tracking list is empty




NASA's NSSDC Master Catalog

Two Line Element Set (TLE):
1 37530U 93036BNK 19232.67320692  .00000053  00000-0  29433-4 0  9994
2 37530  74.0345 223.2897 0026940 129.0858 352.1208 14.31683055522095
Source of the keplerian elements: AFSPC